Airfield :
LOGIN :

Register | Disclaimer

   EN    FR    IT 

 










Legend :    VFR   Marginal VFR   IFR   Intensive IFR   Very Intensive IFR
Visi :
Ceiling :
>= 8 km
>= 3000ft
5 to 8 km
1000 to 3000 ft
1500m to 5 km
500 to 1000 ft
800 to 1500m
200 to 500 ft
< 800m
< 200 ft
Symbols :   Thunderstorms  Fog  Heavy snow  Heavy precipitations  Wind > 20 kt
SIGMETs :     Misc.  Thunderstorms  Icing  Turbulence  Mountain Waves  Volcanic Ashes







- Airport Elevation : 162 ft
- IATA code : BOD
- Download approach charts


LFBD - Bordeaux / Merignac

CURRENT METAR :
  • 242030Z AUTO 35005KT CAVOK 16/12 Q1017 NOSIG

EXPIRED METARs :
  • 242000Z AUTO 36005KT CAVOK 17/13 Q1017 NOSIG
  • 241930Z AUTO 01006KT CAVOK 17/13 Q1017 NOSIG
  • 241900Z AUTO 02006KT CAVOK 18/13 Q1017 NOSIG
  • 241830Z AUTO 01010KT CAVOK 19/13 Q1017 NOSIG
  • 241800Z AUTO 01010KT CAVOK 20/14 Q1016 NOSIG

TAF TAF LFBD
Valid from the 24 at 18:00 until the 26 at 00:00 UTC


241700Z 2418/2524 36007KT CAVOK
BECMG 2423/2501 30010KT BKN015
BECMG 2508/2510 BKN030 TX22/2418Z TN10/2524Z
ATIS : +33 5 57 92 81 04
No reported NOTAMs for that airfield.



MET'MAP, your aeronautical weather chart ! - Copyright ORBIFLY December 2007 - Disclaimer

ORBIFLY MET'MAP TEAM :

Programming & Development : Alexandra Zaïnal
Concept & Development : Baudouin d'Aumeries
Co-Development & Prog : Marc-Olivier Méhu
Technical & hardware support : Manuel Goepfert

Contact : metmap@orbifly.com




SOURCES & CREDITS :

   NOAA